Temp
-1 -0 0 1 3 4 4 5 6 7 8 8 9 9 10 10 10 11 11 11 12 12 12 11 11 11 11 10 10 10 11 11 11 11 11 11 11 11 11 11 10 10 10 9
-3 -2 -0 1 2 2 3 4 5 7 7 8 9 10 10 10 11 11 12 11 11 12 12 12 11 11 11 11 11 11 11 11 11 11 11 11 11 11 11 10 10 9 9 9
-5 -1 -1 -1 1 2 3 4 5 6 7 8 9 9 10 10 11 11 12 12 12 12 12 12 12 11 11 11 11 11 11 11 11 11 11 10 10 10 10 10 10 10 9 9
-4 -2 -2 -0 -1 2 3 4 5 6 7 8 9 9 10 10 11 11 12 12 12 12 12 12 12 12 11 11 11 11 11 11 11 11 11 11 11 11 11 11 10 10 9 9
-4 -3 -2 -2 -1 0 3 4 5 6 7 7 8 9 10 10 10 11 12 12 12 12 12 12 12 12 12 11 11 11 11 11 11 11 11 10 10 11 10 10 10 10 9 9
-5 -3 -2 -2 -1 1 1 2 5 5 5 6 8 8 9 10 11 11 11 11 12 12 12 12 12 12 12 12 11 11 11 11 11 10 10 10 10 10 10 10 10 10 9 9
-4 -4 -3 -2 -2 -1 -1 -1 1 3 3 5 7 8 9 10 10 11 11 11 11 11 12 11 12 12 12 12 11 11 11 10 10 10 10 10 10 10 10 10 10 10 10 9
-5 -4 -3 -2 -2 -2 -1 -1 0 2 3 3 4 6 8 10 9 10 10 11 11 11 11 12 12 12 12 12 11 11 11 11 11 10 10 10 10 10 9 9 9 9 9 9
-7 -4 -2 -2 -1 -2 -1 -2 -0 -0 1 4 5 4 6 7 9 10 10 11 11 11 11 12 12 12 12 12 12 11 11 11 11 10 10 10 10 10 9 10 9 9 9 9
-7 -7 -3 -2 -2 -2 -1 -1 -1 -1 1 1 5 6 5 7 8 8 10 10 11 11 11 12 12 12 12 12 12 11 11 11 11 10 10 10 10 10 9 9 9 9 9 9
-6 -7 -4 -2 -2 -0 -0 -2 -1 -1 -0 1 3 5 7 7 8 8 9 10 11 12 11 12 12 12 12 12 11 11 11 11 10 10 10 9 9 9 9 8 9 9 8 8
-7 -7 -7 -4 -2 -1 -2 -2 -2 -1 -1 1 2 5 7 7 7 8 9 10 11 11 12 12 12 11 11 11 11 11 11 10 10 10 10 9 9 8 8 7 8 9 8 8
-7 -6 -7 -4 -3 -3 -4 -6 -5 -2 -1 -1 1 4 6 6 7 8 8 9 9 11 10 10 11 11 11 11 11 11 10 10 10 10 9 8 8 8 7 8 8 9 8 7
-7 -7 -6 -7 -8 -7 -6 -6 -6 -5 -3 -1 0 4 6 6 5 6 6 7 8 9 10 10 10 10 10 9 9 9 9 9 9 9 8 8 7 7 7 7 8 9 8 7
-7 -7 -6 -6 -7 -7 -7 -7 -6 -6 -5 -4 0 0 4 3 3 4 3 6 7 8 9 9 9 9 9 8 8 8 8 8 9 8 8 7 7 7 7 7 8 8 7 6
-7 -7 -7 -7 -6 -7 -7 -6 -5 -5 -4 -5 -3 -1 2 0 1 1 3 4 5 6 6 6 7 8 8 8 8 8 8 8 8 8 7 7 7 6 7 7 7 7 6 6
-8 -8 -7 -7 -6 -6 -6 -4 -3 -3 -3 -3 -4 -1 -0 -1 -2 0 0 2 2 2 3 4 4 5 6 7 7 7 7 7 7 7 6 6 6 6 6 7 7 6 6 7
-7 -8 -7 -7 -7 -9 -4 -3 -3 -2 -2 -2 -2 -2 -3 -3 -1 -2 -0 0 0 2 3 3 3 3 4 5 6 6 6 6 6 6 6 6 6 6 7 7 7 6 6 7
-6 -7 -7 -7 -7 -6 -4 -3 -3 -3 -3 -2 -2 -2 -1 -2 -2 -4 -3 -1 -1 -1 1 1 2 2 2 3 4 5 5 5 5 6 6 6 7 6 6 6 7 7 6 7
-6 -7 -8 -7 -8 -8 -3 -3 -3 -4 -3 -2 -2 -2 -2 -2 -3 -2 -4 -2 -2 0 -1 -1 0 1 1 2 3 4 4 5 5 5 5 6 6 6 6 6 5 6 8 6
-6 -6 -7 -8 -7 -6 -4 -3 -3 -4 -3 -3 -2 -2 -2 -2 -2 -2 -2 -2 -1 -2 -4 -4 -1 0 1 1 1 2 3 4 5 5 5 5 6 6 6 6 4 4 5 5
-7 -7 -7 -7 -7 -8 -4 -4 -4 -4 -4 -3 -3 -3 -3 -3 -3 -3 -2 -1 -1 -1 -1 -1 -1 -1 -1 1 1 1 2 2 3 4 4 5 5 5 6 6 4 4 4 4
-7 -7 -7 -7 -5 -4 -5 -5 -4 -4 -4 -4 -4 -4 -4 -3 -3 -3 -3 -3 -2 -1 -1 0 -1 -2 -1 -1 0 0 0 1 2 2 3 4 5 4 5 6 6 4 4 3
-8 -8 -7 -7 -6 -6 -6 -6 -5 -4 -5 -4 -4 -4 -4 -4 -4 -4 -4 -4 -3 -2 -2 -1 -0 0 1 1 1 0 1 1 1 1 2 2 3 4 4 5 5 4 4 2
-8 -8 -6 -6 -6 -6 -6 -6 -6 -5 -5 -5 -5 -5 -5 -5 -5 -5 -4 -4 -4 -4 -3 -2 -1 -1 -0 0 0 -0 -0 1 1 1 1 1 1 2 3 4 4 4 2 3
-7 -6 -7 -6 -6 -6 -7 -7 -7 -5 -5 -5 -6 -6 -5 -5 -5 -5 -5 -5 -4 -4 -4 -4 -3 -2 -1 -1 0 -1 -1 -1 -0 1 1 1 1 1 2 2 3 4 2 2
Height
3002 3004 3002 3008 3015 3021 3036 3039 3041 3043 3055 3064 3061 3067 3073 3079 3082 3083 3086 3090 3094 3097 3102 3106 3110 3112 3110 3115 3118 3119 3121 3125 3129 3131 3133 3136 3140 3144 3147 3151 3153 3157 3160 3162
2994 2982 2996 3011 3015 3020 3025 3033 3032 3039 3048 3054 3054 3057 3065 3070 3070 3075 3079 3081 3084 3090 3095 3098 3103 3106 3104 3106 3111 3112 3115 3119 3123 3126 3129 3131 3135 3139 3142 3144 3148 3150 3153 3156
2981 2980 2989 2997 3006 3015 3016 3020 3019 3027 3043 3048 3051 3049 3053 3058 3063 3066 3069 3072 3076 3080 3085 3090 3095 3099 3100 3099 3102 3105 3108 3112 3117 3121 3123 3125 3128 3131 3134 3138 3142 3144 3147 3151
2972 2978 2985 2988 2990 3006 3005 3010 3018 3029 3039 3036 3038 3036 3042 3048 3050 3055 3056 3061 3066 3073 3077 3082 3086 3090 3092 3092 3094 3097 3102 3106 3110 3113 3116 3118 3121 3125 3129 3132 3136 3139 3143 3146
2966 2971 2978 2979 2980 2995 2994 3014 3018 3023 3028 3031 3029 3033 3028 3037 3037 3036 3043 3050 3057 3064 3069 3072 3077 3081 3085 3086 3086 3089 3093 3098 3102 3105 3110 3112 3114 3119 3122 3126 3129 3132 3137 3141
2958 2963 2967 2971 2976 2987 2993 3005 3009 3013 3020 3016 3019 3027 3013 3019 3011 3029 3037 3042 3048 3055 3060 3065 3068 3072 3076 3078 3078 3081 3084 3088 3093 3098 3101 3104 3107 3111 3113 3117 3121 3126 3130 3134
2957 2953 2958 2964 2970 2979 2985 2991 2997 2998 2998 3001 3003 3010 2997 2999 3009 3021 3028 3033 3038 3045 3050 3053 3059 3061 3065 3069 3070 3073 3075 3079 3084 3089 3092 3095 3099 3101 3103 3108 3113 3118 3122 3126
2950 2949 2950 2955 2962 2970 2976 2982 2981 2979 2980 2987 2987 2993 2982 2979 3011 3011 3018 3023 3029 3035 3037 3043 3048 3053 3057 3060 3062 3064 3066 3066 3073 3079 3084 3087 3091 3093 3094 3099 3103 3109 3114 3119
2951 2943 2946 2951 2959 2966 2970 2970 2980 2983 2979 2979 2979 2986 2974 2986 2993 3000 3004 3013 3018 3023 3026 3031 3038 3042 3046 3047 3051 3055 3057 3058 3057 3065 3075 3076 3082 3085 3085 3089 3094 3099 3106 3111
2955 2944 2940 2946 2954 2955 2960 2968 2972 2970 2966 2972 2967 2971 2962 2969 2969 2985 2996 3001 3007 3012 3013 3019 3024 3028 3033 3037 3040 3045 3049 3052 3052 3048 3062 3068 3071 3076 3078 3079 3085 3091 3095 3101
2954 2953 2944 2944 2939 2943 2952 2954 2957 2960 2964 2962 2966 2956 2935 2970 2977 2982 2987 2992 2996 3000 3005 3009 3014 3018 3021 3025 3029 3034 3039 3044 3048 3042 3049 3057 3061 3065 3068 3071 3077 3083 3086 3093
2952 2951 2948 2941 2939 2941 2948 2948 2953 2951 2954 2958 2959 2941 2963 2970 2976 2978 2976 2980 2984 2990 2995 2999 3004 3008 3012 3014 3017 3021 3027 3032 3038 3040 3038 3045 3051 3057 3059 3062 3066 3073 3079 3084
2954 2953 2945 2933 2934 2939 2939 2945 2944 2948 2949 2949 2954 2929 2960 2963 2961 2966 2961 2967 2973 2977 2984 2990 2993 2997 3000 3003 3006 3011 3016 3022 3028 3031 3031 3035 3041 3045 3050 3055 3060 3064 3069 3073
2954 2952 2953 2952 2947 2944 2942 2941 2943 2941 2943 2945 2944 2939 2952 2952 2954 2959 2949 2953 2960 2964 2970 2981 2984 2986 2990 2992 2996 3001 3006 3011 3017 3022 3025 3027 3030 3036 3041 3045 3049 3053 3061 3063
2952 2949 2949 2948 2945 2944 2942 2940 2939 2937 2937 2939 2939 2940 2947 2947 2948 2949 2951 2941 2950 2953 2958 2968 2974 2977 2981 2985 2987 2992 2997 3003 3009 3013 3016 3019 3023 3025 3028 3033 3037 3044 3049 3055
2949 2948 2946 2944 2942 2941 2940 2936 2934 2930 2932 2932 2934 2933 2943 2942 2942 2947 2942 2941 2944 2947 2952 2958 2966 2970 2975 2979 2982 2984 2989 2995 3000 3005 3007 3011 3013 3016 3019 3024 3030 3035 3041 3046
2948 2946 2945 2943 2940 2938 2933 2925 2923 2926 2927 2932 2931 2932 2932 2934 2937 2938 2942 2942 2935 2943 2950 2956 2961 2966 2969 2973 2975 2979 2982 2986 2990 2994 2997 3001 3003 3006 3010 3017 3022 3025 3031 3037
2943 2944 2946 2943 2943 2940 2924 2919 2920 2922 2925 2930 2930 2932 2934 2928 2933 2936 2931 2930 2935 2937 2938 2945 2952 2961 2965 2967 2969 2972 2976 2979 2983 2986 2988 2991 2994 2999 3003 3008 3012 3017 3023 3028
2936 2939 2940 2940 2937 2930 2921 2920 2921 2921 2924 2927 2928 2931 2932 2931 2930 2935 2931 2927 2931 2934 2935 2941 2951 2956 2961 2962 2964 2970 2972 2974 2976 2980 2982 2985 2987 2990 2995 2998 3003 3008 3014 3018
2931 2932 2937 2936 2936 2931 2919 2919 2920 2920 2922 2924 2928 2929 2926 2923 2925 2934 2930 2933 2927 2925 2928 2936 2945 2950 2955 2958 2958 2962 2966 2969 2973 2975 2977 2980 2982 2984 2987 2990 2994 2999 3004 3007
2930 2929 2928 2930 2931 2918 2914 2912 2916 2920 2925 2920 2923 2924 2923 2924 2925 2927 2928 2927 2924 2924 2932 2934 2935 2941 2950 2952 2952 2956 2959 2964 2967 2970 2972 2975 2977 2980 2982 2984 2987 2991 2995 3002
2924 2926 2920 2924 2925 2918 2912 2908 2913 2915 2915 2917 2920 2921 2922 2923 2924 2924 2923 2923 2926 2928 2930 2928 2933 2942 2944 2950 2950 2949 2952 2957 2960 2963 2966 2968 2971 2973 2975 2977 2979 2983 2987 2994
2915 2917 2915 2915 2906 2910 2906 2911 2911 2912 2914 2914 2915 2915 2917 2918 2920 2920 2919 2919 2918 2921 2926 2930 2930 2934 2935 2940 2941 2942 2942 2946 2950 2954 2957 2960 2963 2964 2968 2970 2972 2975 2980 2984
2908 2909 2907 2902 2902 2905 2905 2904 2907 2906 2907 2907 2908 2908 2909 2909 2910 2911 2912 2913 2914 2916 2919 2921 2923 2927 2930 2931 2934 2935 2934 2936 2941 2944 2947 2951 2953 2956 2959 2962 2964 2967 2972 2978
2903 2903 2898 2896 2898 2901 2902 2902 2902 2900 2901 2902 2902 2901 2900 2900 2900 2902 2905 2908 2909 2909 2911 2913 2914 2916 2918 2921 2924 2925 2925 2925 2928 2932 2936 2940 2944 2947 2951 2953 2957 2960 2966 2971
2897 2895 2893 2887 2889 2890 2896 2897 2896 2895 2893 2894 2894 2893 2894 2895 2894 2893 2894 2896 2898 2900 2902 2903 2905 2906 2909 2913 2915 2915 2917 2916 2918 2922 2927 2931 2935 2940 2944 2945 2947 2950 2957 2963
Wind_Speed
48 35 44 53 57 65 53 51 45 55 47 32 51 44 40 36 39 39 40 37 34 39 33 38 33 33 38 34 35 32 30 30 28 27 28 30 28 27 28 26 27 27 26 25
57 49 39 46 53 52 53 50 50 45 46 43 37 46 44 40 49 41 35 44 40 36 30 33 37 38 40 39 37 38 32 32 32 29 28 29 29 28 27 29 30 28 28 26
55 50 32 37 43 46 53 54 62 52 37 39 44 46 42 47 47 45 41 36 41 41 41 35 38 41 45 46 45 44 39 33 32 32 33 33 32 31 32 31 30 31 31 27
27 60 48 54 42 44 50 58 57 48 37 32 47 30 42 47 48 46 51 45 42 43 38 44 39 39 46 49 47 47 45 39 34 34 36 37 36 34 32 30 29 31 32 30
26 32 44 54 65 44 52 42 51 44 39 43 39 25 38 48 48 58 49 53 51 47 40 39 40 40 43 49 51 49 49 46 41 39 34 38 39 35 36 35 33 33 33 31
34 15 35 40 51 59 43 30 38 41 52 29 43 40 46 49 54 54 54 43 49 53 51 41 48 42 45 48 54 53 51 51 48 43 42 39 40 38 40 38 39 36 34 33
35 38 27 29 34 60 47 24 10 17 13 16 57 44 51 60 59 42 46 52 52 52 54 46 49 50 46 49 49 48 49 50 46 47 46 44 42 43 44 43 41 40 37 36
8 18 48 34 31 22 54 43 13 13 15 16 40 19 65 78 45 39 54 45 37 41 38 56 46 50 50 51 54 55 57 59 57 53 46 44 40 43 44 42 43 42 39 35
11 12 29 36 41 29 23 26 49 29 28 10 24 31 59 55 58 57 37 43 51 48 48 45 56 57 58 60 62 62 60 59 61 55 47 48 44 42 44 41 40 41 39 38
14 15 19 28 29 30 27 28 28 21 7 14 14 41 47 58 71 66 57 45 47 34 29 50 50 44 58 58 59 60 62 59 58 59 50 48 49 45 43 44 38 35 40 39
18 7 8 21 23 34 20 30 16 18 21 7 11 29 71 49 53 49 58 65 61 46 36 32 38 46 42 46 52 54 57 58 59 64 54 44 45 45 45 45 43 36 36 38
15 6 15 14 19 19 26 23 30 15 6 28 11 35 29 35 20 37 35 37 49 57 59 58 41 45 44 41 42 48 46 48 53 55 55 49 44 47 48 47 46 43 38 35
9 7 14 8 7 7 10 5 4 27 20 21 14 39 36 5 21 26 44 55 53 42 49 36 39 47 46 48 49 50 48 46 48 49 47 46 43 48 48 48 48 45 42 38
6 9 9 6 15 14 7 5 6 1 9 11 38 35 21 18 15 6 18 23 27 28 39 49 45 43 39 39 42 42 44 43 44 43 45 45 42 45 45 49 50 47 41 39
6 12 13 12 13 12 13 12 7 6 7 8 15 34 24 6 21 20 5 26 30 34 34 36 38 38 35 36 37 38 36 37 42 40 43 45 45 47 44 49 47 44 39 37
8 10 11 15 10 13 12 19 14 9 12 19 22 20 38 18 17 15 24 14 19 23 23 18 25 32 35 38 39 40 40 38 42 36 35 35 36 40 41 42 44 41 40 39
18 16 11 5 9 15 17 10 8 10 14 18 21 23 20 18 5 26 16 17 19 19 19 14 6 16 22 31 35 34 33 33 36 38 39 35 33 33 36 41 46 42 41 40
23 21 19 13 16 4 10 3 6 11 7 11 15 12 11 19 18 11 37 22 15 24 29 20 13 4 11 15 21 25 26 28 32 35 38 39 36 35 35 39 38 40 41 38
24 25 16 6 9 20 32 15 18 19 16 12 16 17 15 12 11 12 22 33 27 18 24 15 11 7 6 11 20 23 23 22 20 25 29 32 34 42 42 41 38 37 40 41
6 15 24 13 4 5 17 4 10 9 15 13 13 14 11 11 14 9 15 21 28 26 23 16 10 3 7 9 16 16 19 22 19 15 15 22 29 32 38 38 42 43 40 35
19 15 26 29 16 19 27 27 14 12 3 11 8 9 7 10 12 15 20 17 19 26 16 18 21 15 7 12 19 20 18 18 18 17 20 21 20 26 31 33 36 38 43 45
29 17 14 21 13 12 9 13 9 11 7 8 9 9 10 11 11 14 18 18 24 24 20 27 20 10 18 16 19 21 24 21 25 29 23 22 25 26 27 32 35 43 40 37
16 30 10 19 27 2 6 13 7 11 15 14 11 9 8 12 15 14 17 17 16 27 28 29 28 23 20 18 27 31 24 32 32 30 28 26 29 31 31 31 33 37 37 39
20 15 15 18 28 24 25 21 22 22 20 23 18 18 19 20 18 18 19 19 18 19 21 29 34 33 32 33 30 28 33 28 25 23 23 27 28 32 35 35 34 35 38 38
31 29 29 32 29 21 16 16 14 20 24 25 23 25 25 24 23 22 22 22 20 23 21 24 36 39 38 38 33 30 26 36 32 26 25 27 28 29 33 36 36 36 42 40
25 25 24 32 23 26 19 17 17 19 20 20 22 27 27 26 27 25 23 23 27 26 25 29 30 31 40 41 40 34 28 29 29 34 34 31 30 28 31 33 38 33 39 36
Wind_Direction
217 229 211 206 207 219 218 221 229 234 227 239 231 234 236 231 230 228 233 238 239 234 233 231 230 228 239 239 248 251 237 226 228 229 230 233 234 234 235 236 235 235 235 241
239 247 214 214 213 217 223 224 233 237 235 225 234 239 234 233 236 240 241 232 234 235 232 239 227 225 234 239 240 250 249 234 228 232 235 237 239 239 238 238 238 234 237 242
237 240 237 221 219 219 222 220 227 229 230 236 237 245 240 238 238 239 243 239 232 236 232 230 229 226 229 236 239 243 248 247 234 231 235 234 234 235 234 235 236 237 236 241
248 245 237 225 233 219 227 222 227 232 229 225 228 239 240 239 235 236 237 235 227 230 235 233 225 227 226 234 239 240 242 251 251 235 234 237 240 243 247 247 242 239 238 239
240 241 242 251 228 221 233 231 231 232 231 239 238 236 239 239 238 233 230 234 230 227 234 232 224 230 230 233 237 242 243 245 254 256 246 240 241 246 247 245 245 242 237 237
244 208 228 227 230 219 229 243 236 239 233 243 236 235 244 235 234 236 234 234 233 237 229 237 236 232 228 230 236 239 244 245 247 252 258 247 242 243 246 247 245 244 241 235
243 243 223 224 229 217 231 236 233 241 221 219 227 227 234 233 235 237 230 236 241 238 235 233 234 228 225 228 233 235 242 243 245 249 256 257 244 243 247 249 249 246 244 237
261 245 229 216 228 232 217 230 225 215 208 214 225 228 231 231 232 243 239 227 226 239 238 231 231 225 224 230 231 237 243 248 249 251 250 253 254 248 245 245 247 246 244 244
336 264 230 240 232 238 235 220 231 251 262 249 219 228 239 232 230 230 229 231 232 233 240 234 233 235 240 241 240 237 241 248 253 250 251 252 255 255 248 245 246 245 242 240
341 304 226 232 213 232 242 239 229 210 206 220 216 219 236 233 230 227 226 225 219 223 225 228 233 238 239 240 240 239 239 242 251 255 252 253 255 256 254 247 245 247 242 238
358 325 264 206 197 215 220 227 214 220 224 208 219 234 233 244 241 245 238 235 228 232 219 228 230 235 242 232 232 235 237 239 241 250 253 249 249 249 250 248 248 246 249 243
352 322 314 266 218 213 222 229 235 225 172 215 222 249 244 239 247 240 242 238 240 241 234 241 230 229 230 223 225 224 229 234 234 239 249 247 245 245 246 245 248 245 246 247
332 339 328 294 219 153 151 64 162 216 221 216 197 244 232 219 218 247 247 242 244 240 235 236 236 231 233 234 236 236 239 235 237 245 246 247 244 242 242 249 250 248 245 247
276 271 244 262 306 311 308 330 4 101 189 212 210 231 210 226 201 192 140 178 206 220 229 225 223 225 232 235 235 230 231 228 234 239 243 245 244 244 245 242 249 245 241 248
262 266 281 296 304 314 310 299 282 289 280 217 227 232 220 158 196 204 148 143 155 165 175 193 208 217 225 227 227 227 229 233 242 246 241 240 246 251 252 239 240 241 244 236
299 295 298 289 312 261 289 298 279 283 284 271 250 254 217 263 221 189 205 160 146 155 168 186 201 207 213 222 228 234 234 233 235 238 234 238 242 242 238 234 238 240 240 231
287 287 311 295 329 322 279 300 250 264 265 271 265 243 206 227 219 219 223 166 125 120 151 145 167 202 213 225 230 224 231 229 226 229 230 234 236 233 227 227 236 236 233 227
252 262 275 281 296 268 299 272 254 271 275 263 272 271 280 279 239 264 247 226 192 154 146 148 147 215 207 204 205 204 210 217 224 231 236 233 230 229 226 229 235 239 232 239
247 243 249 247 234 284 289 273 251 237 253 272 272 269 273 273 271 262 285 265 252 215 151 127 138 140 240 244 220 209 210 214 221 230 229 231 229 228 225 227 229 232 234 234
249 237 233 239 247 243 265 7 70 24 286 273 258 251 273 239 251 206 243 275 286 261 255 233 208 205 217 258 264 250 236 233 234 246 247 240 234 235 232 230 228 229 229 230
272 266 229 231 240 266 278 282 273 250 276 305 313 304 306 285 269 253 236 267 287 288 277 264 263 204 223 236 253 271 263 244 242 256 260 258 254 243 240 237 233 233 231 234
260 256 226 224 228 254 62 48 235 258 283 283 258 261 254 252 263 265 259 241 245 248 242 273 265 266 278 240 263 271 263 262 262 273 266 264 255 255 252 242 233 234 240 240
253 242 249 222 229 63 236 332 300 258 292 264 262 244 259 260 257 255 266 278 251 230 226 221 231 229 237 231 246 249 272 265 263 259 267 262 258 252 251 246 244 238 231 235
292 292 285 307 257 251 271 282 265 254 280 279 271 266 266 269 269 273 275 280 261 242 240 225 225 225 219 223 219 235 247 252 255 247 250 263 263 252 247 248 245 238 230 229
286 293 290 286 285 297 305 315 309 265 262 261 259 264 265 264 265 271 271 270 273 254 252 234 225 225 219 221 218 224 238 246 248 250 248 254 262 258 251 247 247 249 235 233
293 297 289 290 296 285 283 289 289 282 276 261 272 270 266 259 258 255 257 256 260 264 266 259 239 238 237 229 225 227 223 242 238 240 246 246 253 261 254 253 245 239 236 238